Location: Bothwell
(42.3833°S, 147.0000°E)
Time: 23:37:10
(UTC+10:00)

Oscar 19 - Visible Passes

Search period start: 25 September 2022 00:00
Search period end: 05 October 2022 01:00
Orbit: 774 x 789 km, 98.8° (Epoch: 24 September)

Date Brightness Start Highest point End Pass type
(mag) Time Alt. Az. Time Alt. Az. Time Alt. Az.
25 Sep 13.5 01:20:30 12° SE 01:20:30 12° SE 01:21:41 10° SE visible
25 Sep 12.1 03:01:02 29° S 03:01:02 29° S 03:03:29 10° SSW visible
26 Sep 12.3 02:28:21 30° SSE 02:28:21 30° SSE 02:31:14 10° S visible
26 Sep 12.5 04:08:52 15° SW 04:08:52 15° SW 04:09:56 10° SW visible
27 Sep 12.8 01:55:40 22° SE 01:55:40 22° SE 01:58:35 10° SSE visible
27 Sep 12.0 03:36:11 25° SW 03:36:11 25° SW 03:38:32 10° SSW visible
28 Sep 13.4 01:22:59 13° ESE 01:22:59 13° ESE 01:25:06 10° SSE visible
28 Sep 11.6 03:03:30 38° SSW 03:03:30 38° SSW 03:06:39 10° SSW visible
29 Sep 11.9 02:30:49 37° SSE 02:30:49 37° SSE 02:34:26 10° S visible
29 Sep 12.3 04:11:20 17° WSW 04:11:20 17° WSW 04:13:00 10° SW visible
30 Sep 12.7 01:58:07 24° SE 01:58:07 24° SE 02:01:49 10° S visible
30 Sep 11.7 03:38:39 31° SW 03:38:39 31° SW 03:41:39 10° SSW visible
01 Oct 13.3 01:25:25 13° ESE 01:26:04 13° ESE 01:28:27 10° SSE visible
01 Oct 11.1 03:05:57 51° SSW 03:05:57 51° SSW 03:09:48 10° SSW visible
02 Oct 11.6 03:33:15 46° SE 03:33:15 46° SE 03:37:36 10° S visible
02 Oct 12.1 05:13:47 18° WSW 05:13:47 18° WSW 05:16:03 10° SW visible
03 Oct 12.5 03:00:34 26° ESE 03:00:49 26° ESE 03:05:02 10° S visible
03 Oct 11.3 04:41:05 36° WSW 04:41:05 36° WSW 04:44:46 10° SSW visible
04 Oct 13.3 02:27:52 13° ESE 02:29:10 14° ESE 02:31:48 10° SSE visible
04 Oct 10.7 04:08:24 68° SSW 04:08:24 68° SSW 04:12:57 10° SSW visible
